Weather History for KMCB - March, 2014

Change the Weather History Date:

Sunday, March 23, 2014

  Actual Average Record
Temperature  
Mean Temperature 58 °F -  
Max Temperature 66 °F 71 °F 84 °F (1991)
Min Temperature 50 °F 45 °F 28 °F (1986)
Degree Days  
Heating Degree Days 7    
Growing Degree Days 8 (Base 50)    
Moisture  
Dew Point 54 °F    
Average Humidity 84    
Maximum Humidity 93    
Minimum Humidity 67    
Precipitation  
Precipitation 0.48 in - - ()
Sea Level Pressure  
Sea Level Pressure 30.08 in    
Wind  
Wind Speed 6 mph (NNW)    
Max Wind Speed 21 mph    
Max Gust Speed 33 mph    
Visibility 8 miles    
Events Rain , Thunderstorm    
Averages and records for this station are not official NWS values.
T = Trace of Precipitation, MM = Missing Value Source: NWS Daily Summary

Daily Weather History Graph

Daily Weather History Graph

Search for Another Location

Airport or City:

Trip Planner

Search our weather history database for the weather conditions in past years. The results will help you decide how hot, cold, wet, or windy it might be!

Date:

Astronomy

Mar. 23, 2014 Rise Set
Actual Time 7:01 AM CDT 7:15 PM CDT
Civil Twilight 6:37 AM CDT 7:39 PM CDT
Nautical Twilight 6:09 AM CDT 8:07 PM CDT
Astronomical Twilight 5:40 AM CDT 8:36 PM CDT
Moon 1:14 AM CDT (3/23) 12:01 PM CDT (3/23)
Length of Visible Light 13h 01m
Length of Day
12h 13m
Waning Gibbous, 54% of the Moon is Illuminated
Mar 23
Waning Gibbous
Mar 23
Last Quarter
Mar 30
New
Apr 7
First Quarter
Apr 15
Full

Hourly Weather History & Observations

Time (CDT) Temp. Dew Point Humidity Pressure Visibility Wind Dir Wind Speed Gust Speed Precip Events Conditions
12:53 AM 66.0 °F 62.1 °F 87% 30.02 in 10.0 mi SSW 4.6 mph - N/A   Mostly Cloudy
1:53 AM 64.9 °F 62.1 °F 90% 29.97 in 9.0 mi SE 4.6 mph - N/A   Partly Cloudy
2:53 AM 64.0 °F 61.0 °F 90% 29.97 in 7.0 mi Calm Calm - N/A   Clear
3:13 AM 64.9 °F 62.1 °F 90% 30.00 in 7.0 mi Calm Calm - N/A   Scattered Clouds
3:53 AM 64.0 °F 62.1 °F 93% 29.96 in 6.0 mi SSE 5.8 mph - N/A   Mostly Cloudy
4:53 AM 64.0 °F 62.1 °F 93% 29.96 in 5.0 mi SSW 3.5 mph - N/A   Clear
5:39 AM 64.0 °F 62.1 °F 93% 29.99 in 4.0 mi Calm Calm - N/A   Mostly Cloudy
5:53 AM 64.0 °F 62.1 °F 93% 29.97 in 4.0 mi South 4.6 mph - 0.00 in Rain Light Rain
6:22 AM 64.0 °F 62.1 °F 93% 30.01 in 3.0 mi WNW 4.6 mph - 0.01 in Rain Light Rain
6:26 AM 64.0 °F 62.1 °F 93% 30.01 in 3.0 mi West 3.5 mph - 0.01 in Rain , Thunderstorm Light Rain
6:33 AM 64.0 °F 62.1 °F 93% 30.02 in 2.5 mi West 3.5 mph - 0.03 in Rain , Thunderstorm Light Thunderstorms and Rain
6:43 AM 63.0 °F 61.0 °F 93% 30.07 in 0.8 mi NW 20.7 mph 33.4 mph 0.35 in Rain , Thunderstorm Heavy Thunderstorms and Rain
6:53 AM 63.0 °F 60.1 °F 90% 30.00 in 1.8 mi East 4.6 mph - 0.45 in Rain , Thunderstorm Heavy Thunderstorms and Rain
6:59 AM 62.1 °F 60.1 °F 93% 30.02 in 3.0 mi NNE 4.6 mph - 0.02 in Rain , Thunderstorm Heavy Thunderstorms and Rain
7:13 AM 62.1 °F 60.1 °F 93% 30.04 in 10.0 mi SW 4.6 mph - 0.03 in Thunderstorm Mostly Cloudy
7:23 AM 62.1 °F 60.1 °F 93% 30.04 in 10.0 mi West 4.6 mph - 0.03 in   Mostly Cloudy
7:42 AM 62.1 °F 60.1 °F 93% 30.07 in 10.0 mi WNW 4.6 mph - 0.03 in   Overcast
7:53 AM 60.1 °F 57.9 °F 93% 30.07 in 10.0 mi North 17.3 mph 24.2 mph 0.03 in   Overcast
8:53 AM 57.0 °F 54.0 °F 89% 30.10 in 7.0 mi North 11.5 mph 21.9 mph N/A   Overcast
9:53 AM 57.0 °F 54.0 °F 89% 30.11 in 10.0 mi North 15.0 mph - N/A   Overcast
10:53 AM 54.0 °F 51.1 °F 90% 30.15 in 10.0 mi North 15.0 mph - N/A   Overcast
11:53 AM 53.1 °F 48.9 °F 86% 30.15 in 10.0 mi North 13.8 mph 25.3 mph N/A   Overcast
12:35 PM 54.0 °F 48.0 °F 80% 30.15 in 10.0 mi North 13.8 mph - N/A   Overcast
12:53 PM 53.1 °F 48.0 °F 83% 30.13 in 10.0 mi North 16.1 mph 24.2 mph N/A   Overcast
1:30 PM 54.0 °F 46.9 °F 77% 30.14 in 10.0 mi NE 6.9 mph - N/A   Overcast
1:37 PM 55.0 °F 48.0 °F 77% 30.14 in 10.0 mi NNE 4.6 mph - N/A   Overcast
1:53 PM 55.0 °F 48.0 °F 77% 30.14 in 10.0 mi North 5.8 mph - N/A   Overcast
2:53 PM 57.9 °F 48.9 °F 72% 30.13 in 10.0 mi NW 5.8 mph - N/A   Overcast
3:53 PM 59.0 °F 48.9 °F 69% 30.12 in 10.0 mi NNW 4.6 mph - N/A   Overcast
4:53 PM 60.1 °F 48.9 °F 67% 30.11 in 10.0 mi North 8.1 mph - N/A   Overcast
5:22 PM 57.9 °F 46.9 °F 67% 30.15 in 10.0 mi North 13.8 mph - N/A   Overcast
5:53 PM 55.0 °F 45.0 °F 69% 30.15 in 10.0 mi North 11.5 mph 21.9 mph N/A   Mostly Cloudy
6:53 PM 53.1 °F 44.1 °F 71% 30.16 in 10.0 mi Variable 6.9 mph 18.4 mph N/A   Clear
7:53 PM 51.1 °F 44.1 °F 77% 30.15 in 10.0 mi NNE 11.5 mph 19.6 mph N/A   Clear
8:53 PM 51.1 °F 44.1 °F 77% 30.18 in 10.0 mi Variable 5.8 mph - N/A   Clear
9:53 PM 51.1 °F 42.1 °F 71% 30.18 in 10.0 mi North 5.8 mph - N/A   Mostly Cloudy
10:53 PM 50.0 °F 43.0 °F 77% 30.17 in 10.0 mi NNE 9.2 mph - N/A   Clear
11:53 PM 50.0 °F 43.0 °F 77% 30.19 in 10.0 mi Calm Calm - 0.00 in Rain Light Rain